CAPE
1902 1924 1880 2048 2179 2370 2305 2318 2222 2185 2272 2377 2325 2276 2224 2267 2232 2199 2001 1715 1651 1712 1769 1769 1786 1827 1851 1943 1817 1678 1536 1501 1526 1457 1306 1295 1375 1395 1331 1088 839 739 802 936 802 847 994 1206 1265 1304 1327 1330 1262 926 657 703 786 841 828 438 281 328 413 656 762 823 742 1308 1750 1770 1578 1270 944 907 1050 1102 1499 1989 1994 2127 2253 2335 2307 2275 2237
2019 2306 2282 2068 2234 2330 2104 1964 1947 1991 1669 1820 1952 2328 2143 2110 2031 1853 1820 1804 1748 1745 1692 1568 1566 1692 1682 1645 1842 1747 1654 1534 1486 1411 1362 1312 1395 1368 1234 988 786 855 932 1028 987 1052 827 1144 1217 1313 1266 1260 1164 879 812 748 713 722 789 774 676 571 679 780 754 787 791 894 1555 1711 1612 1390 1279 1027 814 1074 1236 2398 2374 2148 2128 2169 2228 2246 2169
1912 2537 2670 2492 2261 1920 1800 1678 1875 1915 1676 1575 1541 1718 2010 2022 1976 1975 1959 1918 1837 1778 1776 1678 1567 1526 1597 1656 1670 1752 1744 1649 1546 1428 1344 1351 1349 1224 1166 964 890 937 1100 1199 1295 1109 1067 976 1112 1364 1228 1135 1091 995 853 766 797 826 825 781 719 640 628 803 832 820 762 757 958 1390 1405 1296 1183 1169 1045 984 1316 1908 2083 2035 1945 1924 1984 2165 2200
1665 2112 2450 2613 2360 1862 2162 2059 2062 1955 1974 1912 1749 1682 1391 1555 1826 1990 2078 1851 1791 1805 1746 1720 1762 1763 1612 1578 1649 1602 1665 1741 1668 1565 1452 1413 1322 1152 1101 1072 1024 1026 1050 1048 1108 1092 1186 994 769 1151 1149 773 1003 1125 1006 906 781 795 794 778 706 670 560 1019 960 902 848 809 826 1167 1251 1185 1120 1059 942 963 957 1454 1720 1716 1737 1721 1840 1944 2081
1413 2194 2217 2230 2192 1870 1528 1406 1671 2147 2118 2028 1835 1588 1609 1471 1531 1877 2075 2075 1962 2026 1990 1868 1798 1846 1763 1682 1666 1651 1612 1628 1752 1659 1623 1512 1365 1172 1048 1022 1007 1027 1046 1054 1229 1096 1162 861 961 907 822 823 1015 1254 1186 893 731 734 736 728 693 695 694 972 1193 1087 988 929 914 1159 1286 1210 1101 1059 1030 924 874 1238 1635 1620 1607 1642 1736 2054 2153
1541 1538 2355 2296 2375 2384 1995 1730 1960 2116 2216 2179 2019 1973 1926 1934 1859 1846 1857 1974 1917 1795 1809 1921 1897 1858 1758 1690 1635 1566 1516 1494 1486 1619 1714 1620 1466 1275 1089 1008 956 947 980 1037 1028 1061 1004 889 924 889 735 924 1089 1084 1224 1097 820 718 710 692 665 660 654 639 704 1140 1103 1032 936 953 1378 1425 1295 1263 1215 1107 969 934 1126 1397 1506 1556 1612 1727 2058
1316 1085 1525 2084 2236 2610 2582 2697 2489 2077 2336 2473 2086 2084 1998 1967 2050 1888 1934 1930 1882 1921 1932 2042 2028 1926 1772 1626 1572 1557 1453 1358 1280 1311 1410 1435 1543 1474 1344 1188 1101 972 972 979 968 978 1018 906 870 924 862 824 809 978 1009 1197 1047 742 663 658 634 628 624 614 520 576 999 1038 1054 991 1054 1365 1369 1364 1337 1274 1240 1108 979 888 1141 1220 1490 1508 1524
765 592 646 1109 1892 2440 2702 2506 2604 2176 2458 2505 2404 2224 2243 1958 1955 2016 2007 2071 1884 1897 1770 1724 1590 1561 1592 1502 1426 1363 1348 1361 1355 1387 1415 1361 1440 1489 1469 1456 1268 1133 1048 1003 926 989 1024 1015 929 839 653 580 788 1071 929 1142 1084 1013 758 616 604 637 635 775 788 684 640 1079 1099 1117 1076 1201 1505 1432 2062 1437 1353 1252 1173 1122 1091 1048 1033 1457 1633
658 307 229 325 920 1929 2559 2539 2307 2062 2056 1851 1901 2013 2022 2035 2111 2035 1936 1844 1842 1771 1653 1539 1449 1343 1352 1499 1572 1532 1460 1414 1420 1455 1461 1374 1296 1552 1646 1628 1521 1376 1250 1172 1096 1073 1079 1045 954 630 583 699 870 1051 1133 1059 1014 944 883 743 589 558 621 840 851 939 880 751 1105 1291 1328 1346 1561 1771 1758 1763 1601 1491 1348 1272 1194 1087 1043 1175 1378
765 447 291 196 331 1074 2029 2257 1929 1932 1869 1827 1850 1796 1702 1643 1704 1745 1906 1956 1945 1782 1525 1513 1414 1427 1224 1178 1321 1413 1424 1411 1439 1440 1438 1459 1465 1491 1680 1733 1678 1508 1477 1384 1351 1277 1174 1048 1137 1670 1880 2062 2288 2374 2226 2103 1881 1144 876 749 582 454 376 527 775 959 1056 1063 921 1140 1490 1555 1542 1676 1773 1756 1697 1605 1459 1375 1396 1365 1355 1531 1578
634 357 330 291 222 629 1406 1661 1669 1495 1508 1735 1840 1863 1712 1570 1432 1399 1417 1493 1615 1657 1552 1646 1657 1605 1584 1524 1462 1342 1188 1260 1400 1459 1387 1364 1648 1436 1608 1665 1643 1574 1486 1428 1312 1264 1212 1132 1024 1352 2003 2215 2595 2567 2723 2808 2944 2655 2162 1827 1289 500 346 419 542 758 1225 1236 1226 1107 1112 1270 1418 1559 1599 1605 1619 1702 1719 1652 1573 1518 1530 1510 1502
322 222 272 258 238 462 1104 1296 840 712 888 1103 1403 1841 1929 1659 1472 1303 1225 1248 1393 1624 1619 1765 1742 1721 1673 1570 1514 1404 1224 1165 1352 1470 1490 1505 1617 1708 1680 1753 1738 1652 1504 1414 1266 1113 1137 1107 1196 1210 1273 1380 1506 1830 2378 2561 2762 2982 2982 2659 2369 1996 1487 707 536 632 957 1238 1452 1474 1299 1130 1140 1220 1429 1494 1532 1589 1675 1710 1720 1711 1701 1680 1650
12 39 99 179 236 270 628 812 604 335 233 358 847 1480 1876 1844 1724 1571 1444 1378 1497 1644 1723 1630 1616 1590 1593 1610 1658 1609 1506 1246 1049 1087 1135 1190 1353 1486 1578 1640 1618 1565 1455 1358 1285 1200 1229 1276 1294 1438 1509 2036 2252 1751 1325 1649 2264 2624 2747 2887 2810 2199 1496 1218 1128 1064 785 1083 1315 1442 1549 1519 1370 1187 1207 1464 1566 1582 1605 1682 1749 1770 1760 1736 1663
0 0 0 24 100 167 256 298 226 187 158 127 209 730 1300 1674 1806 1786 1664 1574 1546 1504 1507 1583 1565 1480 1475 1511 1518 1549 1599 1557 1448 1318 1175 1098 1168 1323 1466 1558 1524 1393 1324 1341 1278 1110 994 1169 1254 1275 1307 1658 2022 2052 1838 1536 1361 1640 2030 2264 2270 2338 2238 1727 1235 950 1336 1490 1385 1289 1282 1467 1607 1576 1536 1387 1342 1382 1408 1441 1491 1586 1692 1752 1773
0 0 9 54 32 31 49 36 60 157 158 117 134 223 620 1065 1424 1681 1740 1710 1702 1684 1578 1563 1525 1519 1486 1477 1514 1611 1668 1630 1516 1324 1215 1250 1278 1222 1115 1163 1428 1552 1518 1392 1309 1284 1174 1063 1113 1128 1124 1134 1357 1612 1611 1620 1451 1275 1096 1173 1568 1647 1539 1705 1573 1279 1043 1052 1183 1303 1319 1352 1613 1742 1734 1674 1622 1560 1510 1502 1468 1410 1357 1321 1387
26 30 194 160 96 60 26 13 32 59 81 108 139 198 230 407 832 1211 1620 1660 1728 1765 1804 1740 1683 1583 1520 1520 1556 1606 1636 1610 1574 1535 1408 1231 1284 1329 1299 1216 1129 1157 1323 1335 1339 1323 1251 1256 1221 1168 1081 1061 1527 1974 2031 1459 1310 1215 1102 1140 1347 1508 1656 1706 1598 1550 1423 1318 1211 1095 1137 1144 1243 1457 1644 1762 1812 1804 1925 2125 1846 1666 1630 1656 1667
158 195 334 198 259 156 85 73 84 120 106 128 154 164 196 254 349 783 1196 1374 1538 1526 1354 1494 1679 1594 1519 1555 1624 1586 1545 1488 1444 1486 1554 1592 1530 1442 1322 1264 1213 1140 1171 1322 1321 1330 1345 1312 1263 1153 1106 1181 1361 1308 1570 2327 1393 1309 1303 1382 1483 1586 1657 1674 1509 1358 1296 1307 1507 1656 1623 1605 1711 1772 1778 1753 1736 1687 1786 1784 1780 1820 1885 1852 1768
198 350 363 344 250 173 159 159 150 176 134 123 139 162 193 222 260 479 747 1135 1409 1462 1165 1227 1493 1670 1650 1674 1652 1583 1498 1405 1301 1315 1403 1518 1495 1405 1381 1382 1306 1241 1217 1258 1310 1360 1330 1280 1226 1105 1055 1098 1204 1447 1427 1819 1766 1565 1450 1417 1417 1400 1422 1425 1321 1127 899 848 1417 2225 2327 2250 2172 2081 1980 1979 1999 1949 1950 1866 1788 1663 1483 1390 1378
309 359 370 323 261 218 207 213 192 168 154 158 170 202 214 253 424 481 630 843 1144 1228 1385 1605 1710 1768 1666 1588 1666 1736 1556 1397 1248 1200 1212 1300 1311 1256 1278 1399 1480 1465 1411 1355 1290 1212 1164 1142 1143 1154 1025 970 947 1280 1694 2022 1891 1764 1679 1557 1490 1436 1432 1421 1313 1258 1474 1750 1994 2128 2063 1956 1854 1746 1767 1827 1905 1904 1887 1881 1874 1806 1690 1598 1523
216 290 339 275 255 294 267 350 290 234 157 146 167 168 296 478 513 328 338 428 676 985 1310 1668 1775 1726 1621 1542 1498 1461 1369 1254 1310 1208 1224 1227 1265 1111 1136 1131 1222 1327 1419 1446 1461 1407 1332 1239 1229 1302 1267 1101 995 1251 1640 1882 1917 1851 1738 1576 1429 1339 1328 1241 1494 1611 1729 1864 1852 1790 1795 1759 1669 1514 1323 1372 1410 1416 1394 1400 1391 1348 1280 1235 1206
226 215 182 213 246 253 227 182 180 192 198 204 225 484 413 250 221 235 262 360 474 630 870 1145 1400 1495 1501 1440 1307 1238 1256 1314 1262 1162 1147 1212 1298 1322 1154 1127 1209 1248 1266 1330 1436 1414 1354 1347 1358 1369 1301 1176 1186 1230 1282 1412 1575 1614 1649 1498 1316 1174 1163 1098 1542 2179 1747 1679 1708 1737 1751 1669 1481 1357 1367 1285 1219 1170 1139 1111 1098 1154 1168 1179 1158
149 124 160 183 219 206 161 133 194 262 315 303 192 133 119 145 229 270 304 396 485 534 620 949 1135 1260 1276 1266 1238 1268 1355 1646 1443 1399 1342 1337 1352 1377 1383 1428 1391 1325 1252 1293 1362 1378 1342 1357 1398 1398 1282 1115 1041 1110 1235 1224 1186 1270 1344 1429 1507 1616 1471 1202 1322 1643 1865 1714 1670 1701 1642 1445 1292 1238 1158 1095 1048 971 897 965 966 953 924 889 842
181 186 130 166 204 174 99 108 152 174 204 230 153 102 46 69 84 212 248 352 428 476 557 692 836 930 1019 1137 1260 1332 1364 1399 1465 1433 1407 1409 1455 1468 1421 1379 1365 1480 1451 1316 1235 1222 1235 1323 1418 1441 1411 1282 1184 1209 1182 1110 1148 1160 1163 1274 1479 1543 1458 1332 1201 1217 1467 1623 1585 1493 1377 1368 1282 1180 1083 981 852 680 548 541 598 682 755 808 836
98 130 163 85 20 27 54 43 30 37 58 107 92 23 0 7 82 177 212 172 180 285 437 660 856 1008 1072 1047 1041 1065 1067 1110 1375 1427 1498 1540 1535 1534 1512 1456 1410 1373 1413 1493 1509 1453 1372 1304 1306 1298 1317 1381 1404 1359 1294 1166 1004 968 1001 1080 1126 1170 1224 1291 1348 1379 1434 1451 1366 1232 1268 1268 1176 972 822 699 625 562 517 468 410 326 361 446 551
71 79 37 15 8 0 0 0 1 7 17 37 46 43 12 12 17 6 12 15 36 109 308 629 769 829 957 1066 1085 1034 912 749 922 1231 1384 1454 1479 1502 1532 1542 1505 1458 1430 1411 1377 1395 1365 1203 1096 1124 1141 1157 1177 1211 1226 1337 1175 967 989 1004 1011 1071 1167 1232 1273 1366 1448 1418 1383 1337 1272 1179 956 754 694 654 607 535 478 426 372 132 122 123 154
79 73 36 16 1 0 0 0 0 6 53 32 18 15 26 52 22 13 19 46 76 98 150 384 580 726 864 903 832 694 553 469 564 861 1223 1526 1600 1578 1583 1609 1578 1506 1443 1476 1392 1360 1294 1229 1200 1154 1073 1090 1152 1170 1191 1331 1180 985 973 868 904 1057 1154 1215 1271 1356 1409 1404 1394 1404 1271 950 807 773 699 612 530 487 418 365 327 147 160 190 238
98 47 3 0 0 0 0 0 37 65 0 0 2 14 20 11 14 62 78 92 141 202 211 303 353 466 611 595 487 399 374 379 431 595 858 1087 1322 1507 1610 1659 1553 1221 988 1206 1296 1369 1409 1371 1309 1217 1031 911 988 1184 1356 1390 1253 981 874 926 1027 1135 1198 1231 1323 1359 1349 1336 1272 1138 966 886 812 727 630 538 472 432 361 346 398 457 462 469 475
122 60 6 0 0 0 0 89 119 0 0 1 6 10 13 20 36 53 80 111 150 197 212 217 232 247 241 250 202 220 262 345 420 546 725 977 1233 1448 1546 1500 1415 1110 763 594 748 1131 1241 1356 1370 1241 1162 1127 1090 1210 1342 1424 1295 1274 1270 1154 928 940 1008 1096 1204 1265 1210 1152 1088 1030 973 897 780 670 558 505 454 413 426 476 561 611 586 542 524
123 42 20 0 0 0 0 0 0 1 1 4 7 10 17 64 73 72 63 78 136 238 314 306 357 284 260 292 280 295 382 432 471 548 799 981 1121 1000 1001 1088 1359 1151 814 611 577 458 360 634 898 1247 1366 1246 1079 1099 1252 1324 1454 1460 1357 1191 1180 1433 1504 1389 1480 1416 1326 1228 1161 1095 1004 878 748 595 492 489 514 522 521 554 624 666 672 640 636
20 18 17 9 0 0 4 1 2 6 7 12 29 36 110 34 68 42 54 182 135 12 168 213 107 137 255 355 394 380 351 341 370 403 509 529 579 752 980 1043 1009 858 738 712 712 521 397 517 732 941 1219 1455 1364 1339 1331 1292 1095 1083 1012 1150 1188 1188 1236 1344 1510 1541 1450 1345 1239 1103 954 767 614 550 548 570 570 586 631 670 731 753 768 777 747
36 14 26 11 11 35 23 12 11 8 7 13 21 62 86 66 4 0 0 0 0 0 0 0 0 19 20 324 404 418 436 459 424 273 0 0 0 0 0 433 572 697 703 638 551 420 89 322 409 693 1101 1236 1309 1322 1303 1069 841 829 586 696 736 825 890 901 993 1034 1065 999 896 802 712 675 671 662 644 618 659 704 744 778 825 874 892 890 848
32 16 9 12 24 30 26 21 28 27 19 11 12 50 80 128 141 42 0 0 0 0 0 0 0 108 331 361 374 413 448 486 482 374 220 0 0 0 0 0 217 413 419 355 406 425 432 333 300 386 611 916 1133 1253 1159 875 848 948 1023 916 726 573 666 792 838 974 1129 1100 1021 944 868 805 778 747 709 686 740 820 863 897 961 1006 982 990 970
25 12 17 29 36 11 18 10 18 22 23 22 19 33 43 57 91 145 68 1 0 0 0 0 0 0 0 0 36 292 425 516 480 388 266 229 200 0 0 0 0 0 0 150 511 484 467 428 401 613 573 623 694 905 1068 1092 1078 1031 920 973 1004 825 787 791 908 1175 1265 1196 1058 980 922 875 837 827 801 789 786 884 959 1022 1085 1086 1097 1098 1066
11 20 43 52 36 14 3 7 15 25 30 26 24 25 24 20 16 65 158 151 75 4 0 0 0 0 0 0 0 208 357 408 442 433 346 260 134 0 0 0 0 0 15 303 322 408 405 423 539 662 597 604 534 407 448 752 984 1091 1068 1091 1204 1150 1104 856 754 747 704 597 760 872 1030 1087 992 955 974 969 969 1039 1136 1191 1199 1197 1181 1141 1097
8 28 48 42 32 2 0 3 16 31 39 14 13 18 28 23 22 15 15 27 104 136 169 131 103 111 32 0 60 254 325 400 500 481 391 317 79 0 0 0 0 0 0 48 308 409 525 566 680 775 761 672 641 594 503 477 527 662 802 855 925 921 936 857 1012 876 689 510 470 560 897 867 1005 1077 1131 1198 1220 1224 1171 1188 1233 1251 1187 1156 1058
12 26 30 48 42 1 1 8 25 43 42 7 11 13 22 22 14 12 11 9 21 35 95 80 50 12 122 153 192 284 348 398 450 453 373 172 0 0 0 0 0 0 0 162 163 222 326 438 587 725 796 806 735 686 625 595 710 761 900 937 856 722 784 864 916 822 676 707 750 763 894 846 817 786 853 817 876 1036 931 959 781 880 946 941 968
16 19 16 45 18 5 4 13 55 40 10 5 8 7 15 15 15 11 14 10 16 17 10 8 14 10 0 1 2 148 299 363 426 404 327 0 32 270 359 397 418 420 352 195 176 233 305 418 480 603 703 735 735 802 827 896 924 829 769 697 633 629 617 619 679 762 914 928 925 922 887 736 694 696 610 590 559 564 599 804 716 714 509 861 774
6 4 14 12 12 8 6 38 34 12 8 11 13 10 22 12 12 16 19 16 18 24 14 9 12 6 4 2 3 2 38 297 306 307 295 183 382 468 461 370 384 406 425 448 529 595 579 646 743 771 801 849 888 857 796 780 726 684 652 595 573 591 667 781 859 907 921 890 893 921 901 773 627 601 642 702 622 572 631 710 661 537 464 441 469
4 5 5 5 8 10 18 27 10 10 8 14 15 17 14 15 14 17 18 14 19 13 27 17 20 13 11 11 1 81 200 239 38 109 278 313 359 411 404 354 379 402 431 444 460 624 750 813 766 721 807 774 702 630 548 526 544 572 616 659 654 520 501 585 634 622 608 578 601 643 617 540 438 359 379 456 461 467 441 446 466 499 449 378 333
0 1 4 3 5 10 21 10 9 12 14 24 16 15 9 16 17 19 21 18 21 19 17 15 15 20 14 6 2 6 6 123 9 153 226 241 267 205 20 206 352 375 391 383 510 515 442 443 551 507 488 459 441 412 385 432 480 460 448 539 522 544 582 589 583 558 527 538 547 604 550 483 449 410 378 428 486 546 630 625 581 518 522 496 455
1 0 0 2 6 7 8 8 10 12 16 21 11 20 14 18 15 19 26 22 24 18 18 23 30 30 15 1 41 94 25 54 97 85 18 234 257 272 306 334 402 416 444 555 604 574 502 509 505 467 404 407 418 414 375 407 456 480 499 482 473 482 541 560 546 510 484 483 481 452 455 491 534 544 582 613 628 674 704 684 636 578 505 418 408
4 0 0 1 9 6 6 8 8 11 10 15 11 27 20 16 15 14 25 18 22 19 20 21 22 31 13 3 2 75 34 20 25 29 35 146 116 186 58 196 269 305 395 467 453 439 415 406 459 460 463 523 514 460 421 393 379 369 387 398 415 465 508 533 548 527 478 441 460 451 404 383 379 409 429 444 444 495 537 553 535 494 451 419 465
13 0 0 0 1 5 6 5 7 7 7 9 13 21 19 15 11 14 14 21 21 22 20 22 21 27 22 7 12 15 24 30 21 19 18 14 17 17 66 36 188 292 334 337 416 398 410 478 468 421 475 514 545 545 506 479 480 459 463 431 388 362 336 314 322 338 376 390 406 430 497 541 550 470 370 387 393 394 436 461 458 448 431 424 422
7 0 0 0 1 2 5 4 6 6 10 13 14 20 15 8 17 15 12 11 18 17 22 23 20 24 23 14 10 12 18 26 32 54 22 25 15 16 18 18 16 15 17 167 20 253 204 240 314 366 303 364 421 250 10 256 427 500 482 454 398 308 255 249 260 293 327 312 264 197 189 204 276 250 271 309 303 342 334 372 416 415 394 362 333
0 0 0 0 1 2 2 3 5 4 10 9 11 14 16 8 8 7 15 18 16 18 18 15 15 21 24 22 20 17 11 12 22 21 18 15 13 12 13 22 27 22 23 23 84 58 148 7 5 37 34 0 190 371 384 397 400 450 402 361 295 245 218 189 170 30 1 1 2 2 2 2 1 28 136 191 196 252 391 423 440 432 398 364 316
0 0 1 2 2 3 6 3 12 5 4 5 5 10 10 10 10 8 10 11 9 14 7 7 8 14 20 21 23 22 14 13 10 14 16 17 26 6 6 27 33 26 23 28 38 32 36 19 12 82 98 75 82 77 209 284 306 279 228 143 33 2 2 2 1 1 1 1 1 1 2 2 1 2 4 4 4 5 62 270 381 406 408 397 358
0 3 4 4 4 4 7 7 8 8 2 4 5 11 9 8 7 8 7 6 10 11 6 7 5 6 12 16 20 22 24 17 9 8 6 3 7 5 48 75 56 25 4 8 14 24 29 37 6 29 8 20 29 54 35 2 2 3 3 2 1 2 2 2 1 1 0 1 1 0 0 2 2 2 3 4 4 5 4 6 80 231 278 289 308
0 0 5 6 8 4 3 3 5 11 4 2 4 7 6 8 7 3 2 3 2 6 2 4 5 5 8 10 13 14 15 10 7 8 2 1 1 6 10 12 19 15 2 1 0 4 12 17 21 4 16 20 9 9 5 7 6 1 0 1 1 2 1 1 1 1 0 0 0 0 0 0 0 1 1 2 2 3 4 4 5 25 120 175 196
0 3 4 6 7 5 2 1 4 3 1 0 0 0 2 6 4 4 8 4 3 4 5 6 4 2 4 4 4 5 6 3 0 0 1 1 0 0 0 0 0 0 0 0 1 1 0 3 4 8 1 0 0 0 1 2 2 2 2 1 1 2 2 2 1 0 0 0 0 0 0 0 0 0 1 1 1 1 1 2 4 12 26 44 96
3 8 6 5 7 5 3 0 0 0 0 0 0 0 0 1 6 10 9 6 2 2 3 6 7 5 4 3 5 5 5 3 2 1 0 0 0 0 0 0 0 0 0 0 0 0 1 0 1 2 4 1 0 0 1 2 2 2 2 2 2 2 1 1 0 0 0 0 0 0 0 0 0 0 0 0 0 0 0 1 4 14 22 19 25
0 3 5 4 5 4 1 0 0 0 0 0 0 0 0 0 0 1 7 7 0 1 3 3 2 2 3 5 6 4 5 4 4 3 2 0 1 0 0 1 1 1 0 1 1 0 0 0 1 2 0 5 0 0 1 1 2 2 2 2 1 0 0 0 0 0 0 0 0 0 0 0 0 0 0 0 0 0 1 5 7 10 11 13 17
Wind_Speed
17 14 10 10 8 5 4 6 8 10 11 12 11 10 9 9 10 10 9 10 11 11 12 12 12 13 18 21 23 23 21 20 19 21 23 24 25 27 29 27 27 29 29 27 26 26 25 26 26 24 25 25 24 23 23 23 23 23 23 24 23 23 23 21 19 17 22 22 22 20 20 20 20 18 17 16 17 15 12 13 13 13 12 11 11
17 14 13 12 10 9 13 15 14 13 10 10 10 10 9 10 11 10 10 10 12 12 11 11 11 11 13 18 21 22 22 21 21 22 23 24 26 29 29 28 28 30 31 29 28 27 33 32 29 26 26 25 26 24 24 24 24 24 25 25 23 23 24 24 20 21 19 26 24 23 23 22 20 21 19 18 18 19 15 15 16 15 14 14 13
16 12 12 11 9 19 19 12 12 15 14 11 10 10 10 10 11 10 9 8 10 12 11 10 10 10 10 12 18 22 24 25 25 24 23 23 25 27 28 27 27 30 31 30 31 34 28 25 27 29 29 26 26 26 26 25 25 25 24 25 24 23 25 24 24 23 24 24 24 24 22 22 21 20 20 20 19 20 18 17 16 17 17 16 15
15 12 10 11 16 21 16 11 11 15 18 19 16 14 13 13 13 9 8 8 8 10 12 10 8 9 10 10 13 18 23 26 28 27 25 24 24 24 25 26 27 29 30 31 34 38 33 34 36 38 38 32 29 29 28 27 27 26 27 28 27 27 28 28 25 25 26 24 26 24 23 22 22 22 22 22 21 21 19 18 17 18 19 18 16
25 16 9 9 22 26 18 13 9 10 16 20 21 21 18 15 12 5 6 9 11 11 11 11 9 9 9 9 11 14 19 24 26 28 28 27 26 25 25 26 27 28 30 33 37 38 34 38 30 28 29 30 31 32 35 35 34 33 31 31 31 31 31 29 26 27 28 26 26 26 25 24 23 24 24 23 23 22 22 20 19 17 18 18 18
17 19 16 13 16 26 31 22 13 10 13 19 20 20 20 19 16 12 7 7 10 12 12 13 13 11 10 11 11 13 16 21 24 25 27 28 29 27 27 27 28 29 31 34 38 40 42 32 28 34 35 32 30 32 37 38 36 36 36 35 36 35 34 33 31 30 28 26 26 25 27 24 25 24 25 24 24 22 22 22 23 22 21 21 21
18 21 21 18 18 21 26 26 23 18 16 16 22 23 21 22 20 15 11 10 10 12 15 17 17 15 13 12 11 12 13 15 20 21 23 27 30 30 29 28 28 29 31 33 37 42 43 38 38 39 33 33 32 33 35 37 37 36 36 35 36 37 37 37 34 31 29 27 26 25 25 24 25 24 25 26 25 24 22 23 22 24 25 23 22
20 20 21 21 20 21 23 24 23 21 21 21 21 22 21 24 23 21 22 18 14 14 16 20 21 19 15 13 12 13 14 14 15 16 18 22 26 29 29 29 29 29 28 30 34 39 41 42 43 37 32 29 27 29 34 37 38 36 35 36 36 37 37 37 36 33 29 27 26 26 27 27 28 29 33 33 30 28 29 28 24 24 24 25 24
24 22 22 23 22 22 23 25 24 23 22 23 23 23 21 21 22 22 22 21 18 18 24 24 21 17 14 12 13 14 15 14 14 14 16 18 21 25 27 28 29 28 27 28 31 35 40 41 41 42 33 25 20 26 34 36 38 35 35 36 36 36 35 37 37 34 30 27 25 27 30 30 30 31 31 31 29 27 31 31 27 26 27 26 25
26 23 22 22 22 23 23 25 26 24 23 23 23 23 23 22 22 21 20 21 20 23 26 24 19 13 13 12 13 16 16 16 14 12 14 17 18 20 23 25 28 29 28 28 29 32 35 39 39 35 33 30 30 31 30 31 32 35 36 37 36 36 35 34 34 34 32 29 26 27 28 28 29 31 31 30 31 34 36 34 29 29 32 28 27
30 27 24 22 22 23 24 25 26 26 25 24 24 24 24 24 23 22 21 21 22 24 27 23 14 11 12 15 16 17 19 20 18 17 16 15 17 17 18 20 25 29 30 29 27 27 31 34 37 36 35 34 34 30 32 31 32 32 31 32 35 36 36 35 33 34 34 32 31 31 28 25 26 30 29 29 32 32 31 33 30 32 31 29 24
36 33 31 27 25 24 25 26 27 27 27 26 25 24 25 25 25 25 24 23 23 25 26 23 15 13 16 16 15 17 18 17 18 21 20 18 16 17 19 18 20 25 30 31 31 30 29 30 33 37 38 37 38 39 35 31 31 33 33 32 32 32 33 36 35 35 35 34 33 31 29 26 27 30 31 34 33 34 32 32 31 31 31 29 28
nan nan nan 33 30 28 27 27 27 27 27 26 26 26 26 25 25 26 26 26 27 26 26 26 20 17 17 17 17 18 18 14 15 16 17 17 16 16 20 19 17 18 24 29 32 32 32 32 32 34 35 29 35 39 40 39 36 35 36 35 33 32 33 33 35 36 37 34 32 30 29 30 29 30 33 36 39 36 36 33 33 32 32 29 27
nan nan nan nan 33 31 29 28 27 26 26 26 25 25 25 25 25 26 27 28 28 26 28 27 25 21 19 18 18 20 20 16 14 15 17 17 17 18 19 20 19 17 19 24 29 30 31 32 32 33 34 34 37 39 42 42 44 44 44 43 40 35 33 33 32 31 33 34 34 30 30 34 31 33 33 38 41 37 37 34 35 34 32 29 28
nan nan nan nan nan nan nan nan nan 26 26 25 25 24 23 24 25 25 27 27 27 27 28 30 30 28 25 24 23 22 22 17 17 16 16 16 17 18 21 20 20 20 19 18 19 22 25 28 30 31 33 34 35 36 39 41 44 45 44 42 40 40 39 38 39 38 37 36 34 31 31 33 34 34 36 37 37 38 39 37 36 35 34 35 35
nan nan 29 28 nan nan nan nan nan nan nan 25 25 23 22 22 23 24 25 26 27 28 29 31 31 30 30 29 28 26 26 22 20 17 15 14 17 22 21 20 20 20 19 17 17 19 21 24 27 28 29 30 29 29 35 40 40 40 39 41 44 45 42 40 40 41 39 38 36 33 34 34 34 34 35 36 37 39 40 42 42 40 38 35 30
28 28 28 27 27 28 nan nan nan 27 26 26 25 24 23 22 22 24 25 25 27 32 29 27 29 30 31 32 31 29 30 28 25 21 19 19 22 22 21 20 21 20 19 18 17 17 18 20 22 24 25 26 27 31 32 33 37 36 38 39 42 43 40 40 38 36 35 33 31 30 31 31 31 32 32 32 36 41 44 42 37 41 38 33 31
27 27 27 27 27 27 28 28 28 28 28 28 27 26 25 25 24 24 25 25 27 29 28 25 24 27 29 31 32 31 31 31 27 25 22 21 21 22 21 20 19 18 19 20 20 18 15 6 12 19 20 22 26 30 30 27 30 33 37 38 39 39 37 38 40 39 34 31 28 28 30 32 33 33 33 33 36 43 43 37 38 43 36 34 31
27 26 25 26 27 27 27 28 29 29 29 29 29 28 27 27 26 27 26 27 27 29 29 27 24 24 26 28 26 27 31 32 29 26 24 22 23 23 22 21 19 19 19 20 20 19 16 13 5 10 16 19 21 26 27 24 25 31 35 37 34 31 31 36 38 39 41 41 38 38 37 36 37 38 38 35 37 41 41 37 41 42 35 33 33
27 26 26 26 27 27 27 27 28 29 29 30 30 30 30 30 29 29 29 29 29 30 30 30 27 25 25 27 28 29 29 30 31 28 25 23 23 25 25 24 22 20 19 19 19 19 17 16 14 11 11 15 21 26 25 19 20 27 32 30 27 23 31 35 34 36 38 38 38 38 36 38 40 41 41 41 40 41 39 38 39 39 35 31 31
28 28 27 27 26 26 27 28 27 28 30 31 31 32 33 32 31 31 31 31 32 32 31 31 30 27 26 26 28 29 30 29 29 27 26 25 24 24 25 24 24 23 22 20 19 19 20 19 20 19 18 17 20 25 23 17 15 22 25 23 23 27 33 31 30 30 33 34 34 34 34 37 39 40 39 39 39 40 40 38 38 37 34 30 28
30 30 29 28 27 27 27 27 28 29 30 31 32 33 34 33 33 32 33 33 33 33 33 34 33 31 29 28 28 29 29 27 30 28 26 26 26 25 25 24 25 26 23 22 21 22 21 22 22 22 22 22 22 24 22 18 13 17 19 19 21 25 29 31 31 31 30 30 30 30 31 34 34 35 34 35 35 36 36 35 34 32 30 28 27
31 31 30 29 28 27 nan 27 28 30 30 30 31 32 nan nan nan 34 34 34 34 34 34 35 36 34 32 31 31 31 33 33 28 29 26 25 25 25 20 23 24 25 23 21 21 23 24 24 23 19 24 25 26 26 24 19 18 17 14 19 21 23 27 28 28 28 28 28 27 26 28 30 31 32 33 33 33 33 31 30 29 29 28 27 26
nan 32 31 nan nan nan nan nan nan nan nan 30 nan nan nan nan nan 34 34 33 34 34 35 36 38 37 34 33 32 33 35 35 33 29 28 25 26 24 22 20 22 26 25 23 24 26 26 26 29 28 28 26 26 26 27 25 23 17 16 17 20 22 25 24 24 24 26 26 25 24 25 28 31 31 32 32 31 31 29 30 31 30 29 28 26
nan nan nan nan nan nan nan nan nan nan nan nan nan nan nan nan nan nan nan nan nan 34 34 36 37 37 36 35 34 35 35 36 37 35 30 28 26 26 25 23 23 23 25 25 27 28 27 27 30 31 30 28 26 28 30 27 23 22 20 19 19 24 23 23 24 26 24 22 23 24 25 28 31 32 34 33 32 34 34 33 32 31 30 28 26
nan nan nan nan nan nan nan nan nan nan nan nan nan nan nan nan nan nan nan nan nan nan 34 35 35 36 36 35 35 35 36 36 37 38 38 35 33 29 27 27 27 26 27 25 22 22 24 28 32 32 32 32 33 33 32 30 27 25 22 21 25 25 26 27 27 26 23 22 23 23 25 30 33 34 34 35 34 31 32 32 31 30 31 28 26
nan nan nan nan nan nan nan nan nan nan nan nan nan nan nan nan nan nan nan nan 35 35 35 34 34 35 35 34 33 34 35 36 37 39 41 40 38 37 37 36 32 33 32 30 28 29 28 31 34 31 32 31 30 30 30 30 32 32 32 29 27 26 29 31 29 25 22 22 24 25 28 31 35 36 34 33 30 30 32 30 30 28 29 28 25
30 nan nan nan nan nan nan nan 25 nan nan nan nan nan nan nan nan nan nan 32 32 32 33 33 33 33 33 33 32 32 33 35 37 39 41 41 40 39 40 41 42 42 38 34 33 35 40 39 34 34 37 37 34 32 30 30 32 34 34 32 30 31 31 30 29 28 26 27 29 30 32 34 33 31 32 31 29 30 32 32 29 28 29 28 26
28 nan nan nan nan nan nan nan nan nan nan nan nan nan nan nan nan nan nan nan 31 31 30 30 30 31 32 32 31 30 31 33 36 42 42 45 46 45 42 40 43 45 49 50 43 44 40 38 38 37 36 33 31 32 31 31 33 35 33 31 33 35 35 35 32 29 29 31 30 30 30 33 31 32 33 31 30 31 33 32 30 30 29 30 25
nan nan nan nan nan nan nan nan nan nan nan nan nan nan 25 nan nan nan nan 25 23 nan 25 26 26 29 30 29 31 29 28 30 35 41 42 43 42 39 36 39 47 52 52 47 46 47 42 40 39 38 36 34 32 32 32 34 36 36 37 39 38 37 36 36 34 32 33 32 31 32 32 33 32 33 34 32 32 33 33 33 31 32 31 30 28
nan nan nan nan nan nan nan nan nan nan nan nan nan nan nan nan nan nan nan nan nan nan nan nan nan nan nan 27 26 24 23 23 27 31 nan nan nan nan nan 42 47 51 52 53 52 49 nan 40 39 40 39 38 37 37 39 46 43 37 38 41 42 40 40 39 37 37 36 34 33 33 33 34 32 34 34 32 32 33 35 35 34 34 33 32 30
nan nan nan nan nan nan nan nan nan nan nan nan nan nan nan 18 18 nan nan nan nan nan nan nan nan 18 20 22 25 28 26 24 25 32 39 nan nan nan nan nan 44 46 42 47 51 49 48 45 43 41 40 39 37 37 40 39 38 39 40 40 41 43 43 39 37 38 37 36 35 34 34 34 34 34 35 34 34 34 36 36 37 36 35 35 33
nan nan nan nan nan nan nan nan nan nan nan nan nan nan nan nan nan 19 nan nan nan nan nan nan nan nan nan nan nan 23 21 23 25 29 32 33 34 nan nan nan nan nan nan 49 49 48 49 47 44 43 43 40 36 38 42 40 38 39 42 42 42 43 42 39 40 41 38 36 36 36 36 36 36 36 36 37 37 36 36 37 38 39 38 37 37
nan nan nan nan nan nan nan nan nan nan nan nan nan nan nan nan nan nan 19 22 nan nan nan nan nan nan nan nan nan 23 22 22 23 25 29 34 35 nan nan nan nan nan nan 44 47 47 48 48 46 44 44 42 40 39 37 37 37 39 42 41 39 41 42 43 43 41 42 41 41 40 39 38 38 38 38 38 39 38 37 39 41 41 41 40 39
nan nan nan nan nan nan nan nan nan nan nan nan nan nan nan nan nan nan nan nan 21 23 25 25 23 21 nan nan nan 24 25 25 24 26 30 35 nan nan nan nan nan nan nan nan 44 46 47 46 46 45 45 44 43 42 37 35 36 37 38 37 39 45 46 41 41 45 46 44 40 36 35 36 37 38 37 37 38 38 37 38 40 41 40 41 41
nan nan nan nan nan nan nan nan nan nan nan nan nan nan nan nan nan nan nan nan nan nan nan nan nan nan 20 20 21 21 23 27 28 30 31 33 nan nan nan nan nan nan nan 42 43 43 45 45 47 47 48 46 46 45 42 39 38 38 39 42 45 44 39 38 41 41 39 38 35 35 37 38 40 40 40 39 38 40 41 38 37 38 38 39 41
nan nan nan nan nan nan nan nan nan nan nan nan nan nan nan nan nan nan nan nan nan nan nan nan nan nan nan nan nan 24 23 25 29 35 34 nan nan 40 38 39 39 41 40 42 44 45 45 45 45 46 47 46 45 45 45 44 44 46 45 42 39 40 41 40 40 41 39 36 34 33 33 34 37 41 44 44 42 38 34 34 36 36 37 35 38
nan nan nan nan nan nan nan nan nan nan nan nan nan nan nan nan nan nan nan nan nan nan nan nan nan nan nan nan nan nan nan 24 27 30 33 37 38 36 37 38 38 39 40 42 43 44 45 45 45 44 45 46 45 45 46 47 48 49 47 42 41 43 43 42 39 39 38 37 34 34 35 37 39 43 45 44 39 36 35 36 37 35 35 37 39
nan nan nan nan nan nan nan nan nan nan nan nan nan nan nan nan nan nan nan nan nan nan nan nan nan nan nan nan nan nan 26 31 nan 33 33 33 33 35 35 36 38 39 38 40 41 43 45 47 47 48 48 48 47 47 47 47 47 47 46 45 45 44 43 43 42 41 41 39 37 37 38 37 38 41 43 41 37 35 35 34 34 34 35 36 38
nan nan nan nan nan nan nan nan nan nan nan nan nan nan nan nan nan nan nan nan nan nan nan nan nan nan nan nan nan nan nan 33 nan 33 35 37 41 43 nan 47 49 49 47 44 42 42 44 45 48 48 48 47 47 46 46 46 47 47 46 46 47 47 46 46 46 45 43 42 40 39 39 37 37 40 41 41 38 36 35 34 34 35 36 35 35
nan nan nan nan nan nan nan nan nan nan nan nan nan nan nan nan nan nan nan nan nan nan nan nan nan nan nan nan nan nan nan nan nan nan nan 33 34 38 41 44 46 48 48 48 49 51 52 54 57 58 59 58 56 55 56 56 56 56 57 56 56 57 57 56 54 53 51 48 46 44 43 41 41 41 41 41 39 36 35 35 37 37 36 36 36
nan nan nan nan nan nan nan nan nan nan nan nan nan nan nan nan nan nan nan nan nan nan nan nan nan nan nan nan nan nan nan nan nan nan nan 31 30 33 nan 39 42 44 45 46 47 49 51 52 54 57 58 58 56 55 56 58 58 57 56 56 57 57 57 56 55 54 53 50 48 46 45 44 43 42 41 40 41 40 38 37 37 37 37 37 37
nan nan nan nan nan nan nan nan nan nan nan nan nan nan nan nan nan nan nan nan nan nan nan nan nan nan nan nan nan nan nan nan nan nan nan nan nan nan nan nan 37 38 40 42 45 48 47 47 50 53 55 56 55 54 55 57 59 59 59 58 57 57 56 54 53 53 52 50 48 46 45 43 43 43 42 41 39 38 38 37 37 37 37 36 36
nan nan nan nan nan nan nan nan nan nan nan nan nan nan nan nan nan nan nan nan nan nan nan nan nan nan nan nan nan nan nan nan nan nan nan nan nan nan nan nan nan nan nan 39 nan 42 42 43 44 47 49 50 51 54 nan 57 58 58 57 57 56 56 54 52 51 51 51 49 47 45 44 43 42 41 41 41 40 39 38 36 35 36 37 37 37
nan nan nan nan nan nan nan nan nan nan nan nan nan nan nan nan nan nan nan nan nan nan nan nan nan nan nan nan nan nan nan nan nan nan nan nan nan nan nan nan nan nan nan nan nan nan 39 nan nan nan nan nan 48 51 54 55 54 52 52 53 53 53 52 51 48 nan nan nan nan nan nan nan nan nan 41 41 40 39 38 37 36 36 36 37 36
nan nan nan nan nan nan nan nan nan nan nan nan nan nan nan nan nan nan nan nan nan nan nan nan nan nan nan nan nan nan nan nan nan nan nan nan nan nan nan nan nan nan nan nan nan nan nan nan nan nan nan nan nan nan 49 51 51 50 50 51 nan nan nan nan nan nan nan nan nan nan nan nan nan nan nan nan nan nan nan 38 38 38 37 36 36
nan nan nan nan nan nan nan nan nan nan nan nan nan nan nan nan nan nan nan nan nan nan nan nan nan nan nan nan nan nan nan nan nan nan nan nan nan nan nan nan nan nan nan nan nan nan nan nan nan nan nan nan nan nan nan nan nan nan nan nan nan nan nan nan nan nan nan nan nan nan nan nan nan nan nan nan nan nan nan nan nan 36 35 35 36
nan nan nan nan nan nan nan nan nan nan nan nan nan nan nan nan nan nan nan nan nan nan nan nan nan nan nan nan nan nan nan nan nan nan nan nan nan nan nan nan nan nan nan nan nan nan nan nan nan nan nan nan nan nan nan nan nan nan nan nan nan nan nan nan nan nan nan nan nan nan nan nan nan nan nan nan nan nan nan nan nan nan 37 37 37
nan nan nan nan nan nan nan nan nan nan nan nan nan nan nan nan nan nan nan nan nan nan nan nan nan nan nan nan nan nan nan nan nan nan nan nan nan nan nan nan nan nan nan nan nan nan nan nan nan nan nan nan nan nan nan nan nan nan nan nan nan nan nan nan nan nan nan nan nan nan nan nan nan nan nan nan nan nan nan nan nan nan nan nan nan
nan nan nan nan nan nan nan nan nan nan nan nan nan nan nan nan nan nan nan nan nan nan nan nan nan nan nan nan nan nan nan nan nan nan nan nan nan nan nan nan nan nan nan nan nan nan nan nan nan nan nan nan nan nan nan nan nan nan nan nan nan nan nan nan nan nan nan nan nan nan nan nan nan nan nan nan nan nan nan nan nan nan nan nan nan
nan nan nan nan nan nan nan nan nan nan nan nan nan nan nan nan nan nan nan nan nan nan nan nan nan nan nan nan nan nan nan nan nan nan nan nan nan nan nan nan nan nan nan nan nan nan nan nan nan nan nan nan nan nan nan nan nan nan nan nan nan nan nan nan nan nan nan nan nan nan nan nan nan nan nan nan nan nan nan nan nan nan nan nan nan
Wind_Direction
318 328 339 338 337 338 320 311 310 306 309 314 324 334 334 338 346 354 339 344 340 341 342 335 316 281 260 255 259 260 260 260 259 256 254 251 246 243 242 239 233 230 227 224 221 216 214 214 214 218 221 220 221 225 230 234 235 233 232 236 236 238 242 242 240 231 224 232 234 229 228 231 223 233 234 238 239 243 249 251 250 251 255 254 250
307 329 337 340 335 306 254 235 242 246 253 270 290 302 305 312 319 324 338 339 326 333 339 341 333 309 277 256 251 254 253 254 257 257 256 253 250 246 242 240 237 234 233 227 224 220 221 212 214 217 225 223 225 221 229 231 236 235 232 235 234 237 245 245 239 240 234 230 231 229 224 231 229 231 239 239 241 244 252 253 252 254 256 256 254
302 313 325 330 314 265 255 256 271 283 293 290 273 261 263 271 287 300 312 318 315 320 329 335 336 328 309 278 257 250 247 244 245 250 252 250 250 248 246 244 241 239 237 232 227 228 228 223 216 216 219 222 224 225 228 230 233 236 236 237 237 239 245 247 245 240 238 232 235 234 231 229 234 228 233 238 240 249 253 253 256 256 256 258 257
292 302 315 322 292 272 273 281 291 290 287 292 294 286 262 246 238 256 286 291 303 306 311 318 321 324 319 301 278 259 249 244 242 244 247 246 244 244 243 243 243 242 239 236 233 233 219 217 219 217 212 210 221 225 226 230 232 235 238 241 244 244 243 244 244 244 242 236 233 239 234 235 229 232 231 234 239 239 243 247 248 253 257 258 260
303 311 311 300 293 295 282 292 297 275 278 281 280 283 284 284 284 259 264 287 292 296 298 297 300 304 310 305 293 276 260 250 246 244 245 245 244 240 236 235 238 240 239 236 235 240 235 231 223 222 223 214 207 220 226 226 227 229 231 234 237 240 245 251 250 247 243 241 234 234 235 233 234 236 237 239 234 237 237 242 247 251 254 258 258
285 295 300 289 274 290 305 312 314 297 277 282 282 286 291 293 291 288 276 271 280 289 291 286 284 287 287 285 287 283 273 268 257 248 249 250 249 243 236 232 233 235 235 236 235 234 241 236 229 229 225 222 215 223 230 229 226 227 228 230 233 234 236 238 242 247 250 244 242 235 236 239 235 237 242 246 244 239 237 237 236 238 245 245 249
287 285 283 278 272 271 280 293 300 294 282 281 290 292 289 286 290 298 298 292 280 273 276 278 278 280 281 281 282 284 284 281 283 277 261 257 256 252 245 239 237 238 237 237 236 236 237 236 234 235 228 226 224 223 227 232 231 229 229 228 230 232 233 233 233 236 241 245 245 245 242 238 242 240 238 246 248 249 250 243 237 238 242 246 244
283 280 279 276 277 273 274 274 273 274 278 277 280 287 285 287 297 303 304 301 286 272 266 264 264 268 274 279 282 285 289 293 300 300 291 276 265 260 255 249 244 243 243 240 239 235 233 232 237 236 231 231 226 228 233 233 233 232 233 232 231 232 234 234 232 232 233 237 245 249 250 247 238 236 239 243 245 241 246 250 247 242 241 244 249
289 281 275 274 273 276 277 277 274 268 265 266 268 271 272 271 277 284 288 286 280 272 263 256 252 258 279 294 295 291 294 300 300 301 299 290 273 262 257 251 248 249 249 246 242 237 233 231 233 241 243 246 250 236 236 237 237 236 236 237 236 235 235 237 237 234 231 231 232 240 247 249 246 248 247 247 251 253 252 255 251 250 249 244 242
292 284 279 273 272 272 275 276 275 270 265 262 263 265 267 266 265 265 271 278 276 272 272 269 271 286 296 297 290 284 285 285 291 314 303 287 281 267 257 250 245 243 244 245 244 242 238 235 233 234 239 239 238 240 240 241 242 242 240 242 241 241 240 238 240 241 238 233 230 237 244 248 252 252 251 249 248 247 249 253 253 252 252 249 243
291 288 282 277 270 267 267 269 270 269 267 265 264 262 261 262 261 261 262 267 270 268 272 280 283 285 281 271 269 276 284 291 308 303 298 307 295 282 270 258 249 243 241 243 244 245 244 243 240 238 237 237 238 241 243 244 245 247 243 242 245 246 244 242 240 242 242 242 237 233 236 244 251 255 256 253 251 252 252 253 253 252 255 254 249
294 294 292 287 280 273 269 268 266 267 268 266 265 266 264 260 259 259 259 259 263 267 269 276 281 273 269 272 273 270 273 287 296 302 308 310 315 296 285 280 269 257 247 240 236 239 243 245 244 244 243 243 243 244 245 246 247 248 248 246 247 250 250 249 246 242 241 239 239 241 240 236 240 250 253 253 252 250 250 251 253 255 255 256 254
nan nan nan 292 289 285 281 278 275 271 269 269 267 268 268 265 260 259 259 258 259 261 264 271 270 263 262 266 268 268 266 274 286 288 289 298 310 312 289 288 285 272 258 250 244 240 239 242 245 246 245 250 248 249 249 247 246 247 247 246 247 251 253 251 250 250 249 245 242 240 246 244 242 244 251 253 254 254 252 251 251 253 255 256 256
nan nan nan nan 288 287 286 284 281 280 278 274 271 268 270 271 268 263 262 259 258 257 259 262 262 262 263 263 263 265 270 273 282 286 289 296 302 304 290 288 286 281 266 252 245 243 245 246 247 248 249 250 250 251 251 249 247 245 245 246 247 247 250 256 258 256 252 251 249 245 243 247 244 246 249 253 256 257 258 256 255 255 255 258 258
nan nan nan nan nan nan nan nan nan 282 281 280 277 272 270 270 270 268 266 264 262 258 256 257 258 259 260 262 264 265 266 265 268 273 281 296 302 300 288 286 282 281 277 268 256 250 247 248 249 249 249 251 254 258 257 255 252 249 247 246 248 250 251 253 257 258 257 256 254 250 245 245 243 244 246 251 256 258 262 261 262 261 258 253 250
nan nan 283 282 nan nan nan nan nan nan nan 280 279 276 272 271 270 270 270 269 268 263 256 257 257 259 261 261 261 262 264 264 264 265 272 280 287 280 280 281 281 278 274 267 262 258 254 248 245 245 248 250 254 265 262 257 257 257 254 250 249 249 248 249 251 252 255 256 254 252 250 249 250 250 251 253 254 254 255 254 254 257 256 254 255
278 279 279 280 280 280 nan nan nan 281 280 279 278 277 275 271 269 272 272 271 269 263 259 257 259 260 262 264 264 261 261 265 270 271 271 276 273 270 270 270 271 272 271 267 261 260 259 254 247 246 248 250 253 258 260 264 261 265 264 259 253 250 248 249 255 258 256 254 254 253 251 250 251 254 255 257 257 256 257 256 256 258 258 256 255
278 277 277 276 276 277 279 280 279 280 280 279 278 277 277 276 273 271 270 269 273 277 274 268 264 264 264 265 266 260 260 262 270 272 273 274 276 268 266 267 267 267 264 263 262 261 263 284 264 255 256 257 257 264 268 268 263 264 263 260 254 249 247 249 250 249 253 254 255 254 252 253 255 254 254 255 257 257 262 261 260 261 260 261 258
278 276 274 275 275 275 276 278 279 280 280 281 280 279 277 276 274 271 269 268 270 273 274 272 267 263 263 264 263 260 259 260 269 273 273 272 271 266 266 266 266 266 264 264 266 264 258 259 279 270 264 263 265 269 276 277 267 263 261 259 256 254 252 251 249 248 250 253 253 254 251 252 253 256 257 262 264 263 262 261 259 263 262 261 261
280 278 276 273 274 274 275 273 275 277 278 279 280 282 280 277 275 273 271 269 267 269 271 271 268 262 259 260 262 262 259 257 261 271 271 271 275 266 263 264 265 266 267 267 264 263 259 256 262 272 276 272 273 274 277 284 269 263 262 261 260 255 249 246 247 250 251 253 252 253 254 254 255 258 260 260 260 260 261 260 260 263 264 263 266
279 277 275 274 272 270 272 273 271 272 275 278 280 279 278 278 276 274 272 271 269 268 269 269 268 264 259 256 258 259 260 256 253 260 266 269 271 271 259 263 262 262 262 263 262 259 257 258 257 264 272 272 270 273 276 276 268 260 266 267 265 252 250 249 250 257 253 251 250 251 253 255 257 258 258 258 257 257 258 260 261 265 269 269 269
278 276 275 275 273 271 269 269 270 272 273 274 275 277 279 279 278 276 273 271 269 269 270 270 270 267 263 257 254 254 255 255 251 249 257 266 270 275 260 256 260 259 259 259 257 254 253 251 252 258 268 272 272 274 274 266 263 256 264 272 264 258 252 249 248 250 251 250 248 247 250 253 254 255 253 253 253 254 255 258 263 267 269 270 270
277 277 276 275 273 270 nan 269 269 271 271 272 273 274 nan nan nan 275 273 271 269 268 267 268 269 267 264 261 257 254 253 252 250 249 247 255 264 268 269 257 259 261 258 256 256 252 249 248 247 248 261 268 271 276 276 269 253 253 253 255 256 252 248 245 245 248 249 249 248 248 249 251 251 251 251 250 251 253 256 259 261 263 263 263 264
nan 277 276 nan nan nan nan nan nan nan nan 272 nan nan nan nan nan 276 273 271 270 269 267 267 267 266 264 261 258 256 254 253 252 250 246 244 252 260 261 260 256 256 256 252 252 251 247 246 247 249 250 258 265 270 271 267 256 252 243 239 242 243 241 239 241 243 244 246 247 247 248 250 251 250 252 253 254 257 259 260 260 261 261 261 263
nan nan nan nan nan nan nan nan nan nan nan nan nan nan nan nan nan nan nan nan nan 273 272 270 268 266 264 262 258 255 253 251 251 249 246 240 240 248 254 253 252 253 248 245 246 249 246 243 245 250 253 253 253 252 254 256 254 245 239 237 241 245 243 240 239 240 241 244 246 246 247 251 255 254 254 255 256 256 257 257 260 261 262 263 264
nan nan nan nan nan nan nan nan nan nan nan nan nan nan nan nan nan nan nan nan nan nan 272 271 269 269 267 263 259 256 253 250 248 248 246 243 239 240 248 251 249 248 251 246 248 247 244 240 238 243 248 248 248 250 251 250 250 245 237 235 241 245 245 243 241 241 241 242 245 248 249 251 252 253 253 254 256 258 259 258 259 261 264 264 262
nan nan nan nan nan nan nan nan nan nan nan nan nan nan nan nan nan nan nan nan 273 272 269 268 267 268 268 266 261 256 253 250 247 247 248 247 243 240 242 246 248 245 242 240 241 244 245 246 246 247 249 250 250 248 248 246 245 240 237 238 246 250 249 247 244 244 244 247 247 247 247 249 249 250 253 256 255 256 260 260 260 261 264 265 266
276 nan nan nan nan nan nan nan 266 nan nan nan nan nan nan nan nan nan nan 269 270 270 268 265 264 265 265 264 262 257 252 248 246 245 246 247 245 243 241 242 245 247 244 240 240 240 241 242 245 246 246 246 248 248 250 248 243 241 239 240 243 244 243 242 238 236 238 242 241 241 243 247 249 251 252 254 255 256 260 262 264 263 265 266 266
274 nan nan nan nan nan nan nan nan nan nan nan nan nan nan nan nan nan nan nan 276 274 269 264 261 261 263 262 261 257 251 246 245 247 243 242 241 241 237 238 241 242 238 230 231 241 244 247 245 246 248 249 247 247 246 246 242 240 240 239 238 240 239 239 238 237 238 240 239 242 243 246 246 249 252 253 254 257 260 261 264 266 265 269 270
nan nan nan nan nan nan nan nan nan nan nan nan nan nan 275 nan nan nan nan 270 270 nan 271 265 259 257 257 260 262 260 252 246 240 239 236 236 236 243 242 235 235 239 239 233 236 242 240 244 247 247 248 251 251 248 243 242 240 238 236 232 229 230 234 235 233 232 235 238 238 240 241 244 245 249 252 254 253 256 261 266 265 267 267 269 269
nan nan nan nan nan nan nan nan nan nan nan nan nan nan nan nan nan nan nan nan nan nan nan nan nan nan nan 257 254 257 252 237 231 231 nan nan nan nan nan 239 241 243 244 242 242 244 nan 241 242 242 239 241 243 242 240 241 237 231 235 236 235 233 233 233 230 231 233 235 237 240 242 246 247 250 253 255 256 258 261 265 267 268 269 270 269
nan nan nan nan nan nan nan nan nan nan nan nan nan nan nan 269 270 nan nan nan nan nan nan nan nan 244 244 257 258 248 244 242 238 239 243 nan nan nan nan nan 247 249 246 250 246 245 243 237 236 238 241 242 240 239 243 247 243 239 234 233 231 233 239 241 240 240 238 239 239 241 244 247 249 251 254 256 257 258 262 264 268 270 270 271 271
nan nan nan nan nan nan nan nan nan nan nan nan nan nan nan nan nan 268 nan nan nan nan nan nan nan nan nan nan nan 264 252 235 227 227 234 239 237 nan nan nan nan nan nan 250 249 248 248 245 241 239 242 244 242 242 242 244 246 246 244 239 233 232 233 231 235 239 242 244 244 245 245 247 248 250 252 255 258 258 261 265 267 268 269 269 269
nan nan nan nan nan nan nan nan nan nan nan nan nan nan nan nan nan nan 269 267 nan nan nan nan nan nan nan nan nan 238 245 247 239 235 232 233 236 nan nan nan nan nan nan 252 253 250 250 249 246 243 243 241 239 242 244 244 244 245 245 243 239 235 236 235 235 237 236 237 239 241 243 247 250 252 253 255 258 259 260 263 265 266 268 269 269
nan nan nan nan nan nan nan nan nan nan nan nan nan nan nan nan nan nan nan nan 259 260 259 256 256 256 nan nan nan 230 231 235 241 242 237 236 nan nan nan nan nan nan nan nan 250 250 249 248 247 245 244 242 241 243 244 244 243 243 244 244 242 241 240 241 241 241 243 242 242 243 242 243 248 254 258 259 260 260 262 264 267 270 271 270 269
nan nan nan nan nan nan nan nan nan nan nan nan nan nan nan nan nan nan nan nan nan nan nan nan nan nan 235 236 234 233 233 241 247 247 245 245 nan nan nan nan nan nan nan 246 248 249 248 246 246 244 244 244 245 245 245 243 245 246 247 247 247 249 248 245 244 244 246 248 246 243 243 245 249 249 250 250 251 252 251 253 257 261 265 266 267
nan nan nan nan nan nan nan nan nan nan nan nan nan nan nan nan nan nan nan nan nan nan nan nan nan nan nan nan nan 222 229 244 247 250 251 nan nan 255 250 245 242 242 243 243 245 247 248 247 246 245 246 246 245 245 245 244 244 246 249 251 252 254 254 251 249 248 250 251 251 248 247 248 251 254 255 254 255 260 264 261 257 259 264 268 269
nan nan nan nan nan nan nan nan nan nan nan nan nan nan nan nan nan nan nan nan nan nan nan nan nan nan nan nan nan nan nan 239 255 256 255 253 252 252 252 249 249 247 245 244 244 247 250 251 250 249 248 247 247 247 247 246 247 247 248 250 252 252 254 255 255 255 254 252 250 250 250 249 249 251 252 252 251 253 257 262 266 267 267 268 269
nan nan nan nan nan nan nan nan nan nan nan nan nan nan nan nan nan nan nan nan nan nan nan nan nan nan nan nan nan nan 240 246 nan 236 236 240 251 253 251 250 250 251 250 250 249 248 247 248 249 251 250 249 248 248 248 248 249 249 249 249 250 252 254 255 256 257 257 254 251 249 248 246 247 252 256 257 254 253 255 259 264 267 267 266 268
nan nan nan nan nan nan nan nan nan nan nan nan nan nan nan nan nan nan nan nan nan nan nan nan nan nan nan nan nan nan nan 248 nan 239 238 238 240 241 nan 241 240 240 240 241 245 248 248 248 250 251 250 249 248 248 248 249 250 250 250 250 252 253 254 254 253 252 252 253 253 252 252 251 250 252 255 258 256 255 255 258 262 266 266 265 266
nan nan nan nan nan nan nan nan nan nan nan nan nan nan nan nan nan nan nan nan nan nan nan nan nan nan nan nan nan nan nan nan nan nan nan 240 240 242 242 242 240 239 238 237 237 240 242 243 243 243 244 244 244 243 244 245 246 247 247 246 247 247 248 248 247 247 246 246 247 248 252 254 255 256 258 260 261 262 262 263 264 266 267 267 267
nan nan nan nan nan nan nan nan nan nan nan nan nan nan nan nan nan nan nan nan nan nan nan nan nan nan nan nan nan nan nan nan nan nan nan 241 242 243 nan 245 243 242 240 238 238 240 242 242 243 242 242 241 241 242 243 245 247 248 248 248 247 246 247 247 246 246 246 246 246 247 248 249 250 254 257 258 261 263 264 265 267 268 268 268 269
nan nan nan nan nan nan nan nan nan nan nan nan nan nan nan nan nan nan nan nan nan nan nan nan nan nan nan nan nan nan nan nan nan nan nan nan nan nan nan nan 244 244 243 241 241 242 242 243 244 243 242 242 241 241 243 246 247 247 247 248 248 248 247 248 248 248 247 247 246 245 246 248 249 249 251 257 260 262 264 266 267 267 267 268 269
nan nan nan nan nan nan nan nan nan nan nan nan nan nan nan nan nan nan nan nan nan nan nan nan nan nan nan nan nan nan nan nan nan nan nan nan nan nan nan nan nan nan nan 242 nan 243 243 244 245 244 242 241 241 242 nan 244 246 246 246 247 248 248 249 249 250 251 250 248 246 246 247 248 248 249 249 252 258 261 263 266 267 266 266 267 268
nan nan nan nan nan nan nan nan nan nan nan nan nan nan nan nan nan nan nan nan nan nan nan nan nan nan nan nan nan nan nan nan nan nan nan nan nan nan nan nan nan nan nan nan nan nan 242 nan nan nan nan nan 235 237 240 243 245 247 248 248 248 248 248 249 251 nan nan nan nan nan nan nan nan nan 250 251 251 255 260 265 267 266 264 265 266
nan nan nan nan nan nan nan nan nan nan nan nan nan nan nan nan nan nan nan nan nan nan nan nan nan nan nan nan nan nan nan nan nan nan nan nan nan nan nan nan nan nan nan nan nan nan nan nan nan nan nan nan nan nan 242 245 246 247 248 250 nan nan nan nan nan nan nan nan nan nan nan nan nan nan nan nan nan nan nan 257 262 264 262 261 263
nan nan nan nan nan nan nan nan nan nan nan nan nan nan nan nan nan nan nan nan nan nan nan nan nan nan nan nan nan nan nan nan nan nan nan nan nan nan nan nan nan nan nan nan nan nan nan nan nan nan nan nan nan nan nan nan nan nan nan nan nan nan nan nan nan nan nan nan nan nan nan nan nan nan nan nan nan nan nan nan nan 257 258 260 262
nan nan nan nan nan nan nan nan nan nan nan nan nan nan nan nan nan nan nan nan nan nan nan nan nan nan nan nan nan nan nan nan nan nan nan nan nan nan nan nan nan nan nan nan nan nan nan nan nan nan nan nan nan nan nan nan nan nan nan nan nan nan nan nan nan nan nan nan nan nan nan nan nan nan nan nan nan nan nan nan nan nan 255 259 263
nan nan nan nan nan nan nan nan nan nan nan nan nan nan nan nan nan nan nan nan nan nan nan nan nan nan nan nan nan nan nan nan nan nan nan nan nan nan nan nan nan nan nan nan nan nan nan nan nan nan nan nan nan nan nan nan nan nan nan nan nan nan nan nan nan nan nan nan nan nan nan nan nan nan nan nan nan nan nan nan nan nan nan nan nan
nan nan nan nan nan nan nan nan nan nan nan nan nan nan nan nan nan nan nan nan nan nan nan nan nan nan nan nan nan nan nan nan nan nan nan nan nan nan nan nan nan nan nan nan nan nan nan nan nan nan nan nan nan nan nan nan nan nan nan nan nan nan nan nan nan nan nan nan nan nan nan nan nan nan nan nan nan nan nan nan nan nan nan nan nan
nan nan nan nan nan nan nan nan nan nan nan nan nan nan nan nan nan nan nan nan nan nan nan nan nan nan nan nan nan nan nan nan nan nan nan nan nan nan nan nan nan nan nan nan nan nan nan nan nan nan nan nan nan nan nan nan nan nan nan nan nan nan nan nan nan nan nan nan nan nan nan nan nan nan nan nan nan nan nan nan nan nan nan nan nan